This is the latest recevied weather packets stored in our database for station/object VK2KGV-15. If no packets are shown the sender has not sent any weather packets the latest 10 day(s).
| Time | Temp. | Humidity | Pressure | Rain* | Wind** | Luminosity | Snow |
|---|---|---|---|---|---|---|---|
| 1777470145 | 12.22° C | 74% | 1027.4 hPa | 0 mm | - | - | - |
| 1777465924 | 15° C | 67% | 1027.2 hPa | 0 mm | - | - | - |
| 1777463511 | 15.56° C | 66% | 1027.2 hPa | 0 mm | - | - | - |
| 1777461702 | 15.56° C | 66% | 1027.1 hPa | 0 mm | - | - | - |
| 1777461099 | 15.56° C | 64% | 1027 hPa | 0 mm | - | - | - |
| 1777458083 | 15.56° C | 61% | 1026.6 hPa | 0 mm | - | - | - |
| 1777457480 | 16.11° C | 61% | 1026.4 hPa | 0 mm | - | - | - |
| 1777456274 | 16.67° C | 59% | 1026.2 hPa | 0 mm | - | - | - |
| 1777455068 | 17.22° C | 58% | 1025.8 hPa | 0 mm | - | - | - |
| 1777452655 | 17.78° C | 56% | 1025.5 hPa | 0 mm | - | - | - |
| 1777451449 | 18.33° C | 54% | 1025.3 hPa | 0 mm | - | - | - |
| 1777450243 | 18.89° C | 52% | 1025.1 hPa | 0 mm | - | - | - |
| 1777449036 | 19.44° C | 51% | 1024.7 hPa | 0 mm | - | - | - |
| 1777447830 | 20° C | 49% | 1024.5 hPa | 0 mm | - | - | - |
| 1777446624 | 20.56° C | 47% | 1024.3 hPa | 0 mm | - | - | - |
| 1777445418 | 21.11° C | 47% | 1024.1 hPa | 0 mm | - | - | - |
| 1777444212 | 21.67° C | 44% | 1023.8 hPa | 0 mm | - | - | - |
| 1777443609 | 22.22° C | 44% | 1023.5 hPa | 0 mm | - | - | - |
| 1777443005 | 22.22° C | 42% | 1023.5 hPa | 0 mm | - | - | - |
| 1777441799 | 22.78° C | 39% | 1023.2 hPa | 0 mm | - | - | - |
| 1777440593 | 23.33° C | 40% | 1023 hPa | 0 mm | - | - | - |
| 1777439387 | 23.89° C | 39% | 1022.8 hPa | 0 mm | - | - | - |
| 1777438181 | 25° C | 38% | 1022.8 hPa | 0 mm | - | - | - |
| 1777436974 | 25° C | 34% | 1022.4 hPa | 0 mm | - | - | - |
| 1777435768 | 25.56° C | 33% | 1022.6 hPa | 0 mm | - | - | - |
* Rain since midnight (hover to see other rain measurements)
** Current wind speed in m/s (hover to see current wind gust speed)